Location: Sternwarte_Laufen
(47.9344°N, 12.9346°E)
Time: 04:07:16
(UTC+02:00)

ISS - Pass Details

Date: 10 July 2025
Orbit: 413 x 417 km, 51.6° (Epoch: 12 July)

Event Time Altitude Azimuth Distance (km) Brightness Sun altitude
Rises 01:12:07 0° 284° (WNW) 2,356 0.2 -19.8°
Reaches altitude 10° 01:14:17 10° 291° (WNW) 1,493 -0.7 -19.8°
Maximum altitude 01:17:30 43° 5° (N) 596 -2.5 -19.8°
Drops below altitude 10° 01:20:43 10° 79° (E) 1,494 -0.8 -19.8°
Sets 01:22:53 0° 86° (E) 2,357 0.1 -19.8°
